Location: Unspecified
(0.0000°N, 0.0000°E)
Time: 11:19:14
(UTC+00:00)

A-11 Canister half - All Passes

Search period start: 27 February 2017 00:00
Search period end: 09 March 2017 00:00
Orbit: 1514 x 1686 km, 47.2° (Epoch: 26 February)

Date Brightness Start Highest point End Pass type
(mag) Time Alt. Az. Time Alt. Az. Time Alt. Az.
27 Feb - 06:52:04 10° NE 06:53:11 10° NE 06:54:18 10° NE daylight
27 Feb - 08:49:23 10° NNW 08:58:32 66° NE 09:07:41 10° SE daylight
27 Feb - 10:56:11 10° W 11:03:19 25° SW 11:10:32 10° S daylight
27 Feb - 19:36:08 10° S 19:44:33 30° SE 19:52:57 10° ENE visible
27 Feb - 21:39:30 10° SW 21:49:31 63° NW 21:59:28 10° NNE visible
27 Feb - 23:53:08 10° NW 23:55:09 11° NW 23:57:09 10° NNW night (unlit)
28 Feb - 08:26:33 10° NNW 08:35:39 60° NE 08:44:43 10° SE daylight
28 Feb - 10:32:56 10° WNW 10:40:22 27° SW 10:47:55 10° S daylight
28 Feb - 19:13:28 10° S 19:21:35 27° SE 19:29:40 10° ENE visible
28 Feb - 21:16:30 10° SW 21:26:34 68° NW 21:36:37 10° NNE visible
28 Feb - 23:28:31 10° WNW 23:32:06 12° NW 23:35:41 10° NNW night (unlit)
01 Mar - 08:03:46 10° NNW 08:12:46 55° NE 08:21:43 10° SE daylight
01 Mar - 10:09:44 10° WNW 10:17:27 30° SW 10:25:16 10° S daylight
01 Mar - 18:50:52 10° S 18:58:35 25° SE 19:06:19 10° E visible
01 Mar - 20:53:31 10° SW 21:03:37 73° NW 21:13:44 10° NNE visible
01 Mar - 23:04:27 10° WNW 23:09:04 14° NW 23:13:40 10° NNW visible
02 Mar - 07:40:58 10° NNW 07:49:52 50° NE 07:58:41 10° ESE daylight
02 Mar - 09:46:33 10° WNW 09:54:32 33° SW 10:02:36 10° SSE daylight
02 Mar - 18:28:17 10° S 18:35:37 22° SE 18:42:56 10° E visible
02 Mar - 20:30:33 10° SW 20:40:41 79° NW 20:50:51 10° NE visible
02 Mar - 22:40:38 10° WNW 22:46:02 15° NW 22:51:27 10° NNW visible
03 Mar - 07:18:11 10° NNW 07:26:59 46° NE 07:35:40 10° ESE daylight
03 Mar - 09:23:24 10° WNW 09:31:37 36° SW 09:39:54 10° SSE daylight
03 Mar - 18:05:46 10° S 18:12:37 20° SE 18:19:29 10° E daylight
03 Mar - 20:07:35 10° SW 20:17:44 85° NW 20:27:56 10° NE visible
03 Mar - 22:16:58 10° W 22:23:02 17° NW 22:29:05 10° N visible
04 Mar - 06:55:26 10° NNW 07:04:05 42° NE 07:12:36 10° ESE daylight
04 Mar - 09:00:18 10° WNW 09:08:43 40° SW 09:17:11 10° SSE daylight
04 Mar - 17:43:18 10° S 17:49:37 18° SE 17:55:57 10° E daylight
04 Mar - 19:44:40 10° SW 19:54:48 89° SE 20:05:01 10° NE visible
04 Mar - 21:53:24 10° W 22:00:01 19° NW 22:06:38 10° N visible
05 Mar - 06:32:41 10° NNW 06:41:10 38° NE 06:49:31 10° ESE daylight
05 Mar - 08:37:12 10° WNW 08:45:49 43° SW 08:54:27 10° SSE daylight
05 Mar - 17:20:54 10° S 17:26:36 16° SE 17:32:20 10° E daylight
05 Mar - 19:21:45 10° SW 19:31:52 83° SE 19:42:04 10° NE visible
05 Mar - 21:29:56 10° W 21:37:00 21° NW 21:44:08 10° N visible
06 Mar - 06:09:58 10° NNW 06:18:16 35° NE 06:26:24 10° ESE daylight
06 Mar - 08:14:08 10° WNW 08:22:55 47° SW 08:31:42 10° SSE daylight
06 Mar - 16:58:38 10° SSE 17:03:36 15° SE 17:08:35 10° ESE daylight
06 Mar - 18:58:52 10° SW 19:08:56 77° SE 19:19:06 10° NE visible
06 Mar - 21:06:31 10° W 21:14:01 23° NW 21:21:34 10° N visible
07 Mar - 05:47:16 10° N 05:55:20 32° NE 06:03:15 10° ESE visible
07 Mar - 07:51:06 10° NW 08:00:02 52° SW 08:08:56 10° SSE daylight
07 Mar - 16:36:31 10° SSE 16:40:35 13° SE 16:44:39 10° ESE daylight
07 Mar - 18:36:00 10° SSW 18:46:00 71° SE 18:56:07 10° NE visible
07 Mar - 20:43:11 10° W 20:51:02 26° NW 20:58:57 10° N visible
08 Mar - 05:24:35 10° N 05:32:25 29° NE 05:40:05 10° ESE visible
08 Mar - 07:28:04 10° NW 07:37:08 57° SW 07:46:10 10° SSE daylight
08 Mar - 16:14:44 10° SSE 16:17:33 11° SE 16:20:21 10° ESE daylight
08 Mar - 18:13:09 10° SSW 18:23:03 66° SE 18:33:07 10° NE visible
08 Mar - 20:19:52 10° WSW 20:28:03 28° NW 20:36:19 10° N visible
